Middlesboro, KY

2:28 PM CDT on July 24, 2017 (GMT -0500)
Middlesboro

Weather History for K1A6 - September, 2013

Change the Weather History Date:

Thursday, September 19, 2013

  Actual Average (KLOZ) Record (KLOZ)
Temperature  
Mean Temperature 70 °F -  
Max Temperature 79 °F 77 °F 92 °F (1978)
Min Temperature 60 °F 56 °F 39 °F (1956)
Cooling Degree Days 4    
Growing Degree Days 20 (Base 50)    
Moisture  
Dew Point 64 °F    
Average Humidity 85    
Maximum Humidity 100    
Minimum Humidity 63    
Precipitation  
Precipitation 0.00 in - - ()
Sea Level Pressure  
Sea Level Pressure 30.15 in    
Wind  
Wind Speed 1 mph (SSW)    
Max Wind Speed 5 mph    
Max Gust Speed -    
Visibility 9 miles    
Events      
Averages and records for this station are not official NWS values.
T = Trace of Precipitation, MM = Missing Value Source: NWS Daily Summary

Daily Weather History Graph

Daily Weather History Graph

Search for Another Location

Airport or City:

Trip Planner

Search our weather history database for the weather conditions in past years. The results will help you decide how hot, cold, wet, or windy it might be!

Date:

Astronomy

Sep. 19, 2013 Rise Set
Actual Time 6:20 AM CDT 6:36 PM CDT
Civil Twilight 5:54 AM CDT 7:01 PM CDT
Nautical Twilight 5:24 AM CDT 7:31 PM CDT
Astronomical Twilight 4:53 AM CDT 8:02 PM CDT
Moon 6:35 PM CDT (9/19) 6:27 AM CDT (9/19)
Length of Visible Light 13h 06m
Length of Day
12h 15m
Full, 100% of the Moon is Illuminated
Sep 19
Full
Sep 26
Last Quarter
Oct 4
New
Oct 11
First Quarter
Oct 18
Full

Hourly Weather History & Observations

Time (CDT) Temp. Dew Point Humidity Pressure Visibility Wind Dir Wind Speed Gust Speed Precip Events Conditions
12:15 AM 63.7 °F 62.1 °F 94% 30.18 in 10.0 mi Calm Calm - N/A   Overcast
12:35 AM 63.7 °F 61.3 °F 92% 30.18 in 10.0 mi Calm Calm - N/A   Overcast
12:55 AM 63.0 °F 61.7 °F 96% 30.18 in 10.0 mi Calm Calm - N/A   Overcast
1:15 AM 62.6 °F 61.3 °F 96% 30.18 in 10.0 mi Calm Calm - N/A   Overcast
1:35 AM 62.1 °F 61.2 °F 97% 30.18 in 10.0 mi Calm Calm - N/A   Mostly Cloudy
1:55 AM 61.7 °F 61.3 °F 99% 30.18 in 7.0 mi Calm Calm - N/A   Overcast
2:15 AM 61.3 °F 60.8 °F 98% 30.17 in 7.0 mi Calm Calm - N/A   Mostly Cloudy
2:35 AM 61.2 °F 60.8 °F 99% 30.17 in 7.0 mi Calm Calm - N/A   Mostly Cloudy
2:55 AM 60.8 °F 60.8 °F 100% 30.17 in 7.0 mi Calm Calm - N/A   Overcast
3:15 AM 60.8 °F 60.8 °F 100% 30.17 in 7.0 mi Calm Calm - N/A   Overcast
3:35 AM 61.0 °F 60.8 °F 99% 30.17 in 7.0 mi Calm Calm - N/A   Overcast
3:55 AM 61.2 °F 60.8 °F 99% 30.17 in 7.0 mi Calm Calm - N/A   Overcast
4:15 AM 61.5 °F 60.8 °F 97% 30.17 in 10.0 mi Calm Calm - N/A   Overcast
4:35 AM 61.3 °F 60.8 °F 98% 30.17 in 10.0 mi Calm Calm - N/A   Overcast
4:55 AM 61.2 °F 60.8 °F 99% 30.17 in 10.0 mi Calm Calm - N/A   Overcast
5:15 AM 61.3 °F 60.8 °F 98% 30.17 in 10.0 mi Calm Calm - N/A   Overcast
5:35 AM 61.5 °F 61.0 °F 98% 30.17 in 10.0 mi Calm Calm - N/A   Overcast
5:55 AM 61.5 °F 61.0 °F 98% 30.18 in 10.0 mi Calm Calm - N/A   Overcast
6:15 AM 61.7 °F 61.0 °F 97% 30.18 in 10.0 mi Calm Calm - N/A   Overcast
6:35 AM 61.7 °F 61.2 °F 98% 30.18 in 7.0 mi Calm Calm - N/A   Overcast
6:55 AM 61.7 °F 61.0 °F 97% 30.19 in 7.0 mi Calm Calm - N/A   Overcast
7:15 AM 62.1 °F 61.2 °F 97% 30.20 in 10.0 mi Calm Calm - N/A   Overcast
7:35 AM 62.1 °F 61.2 °F 97% 30.20 in 5.0 mi Calm Calm - N/A   Overcast
7:55 AM 62.8 °F 61.9 °F 97% 30.20 in 7.0 mi Calm Calm - N/A   Scattered Clouds
8:15 AM 63.9 °F 61.2 °F 91% 30.20 in 10.0 mi Calm Calm - N/A   Clear
8:35 AM 65.5 °F 62.2 °F 89% 30.20 in 10.0 mi Calm Calm - N/A   Scattered Clouds
8:55 AM 66.6 °F 62.2 °F 86% 30.20 in 10.0 mi Calm Calm - N/A   Scattered Clouds
9:15 AM 69.1 °F 62.8 °F 80% 30.20 in 10.0 mi Calm Calm - N/A   Clear
9:35 AM 70.5 °F 63.0 °F 77% 30.20 in 10.0 mi Calm Calm - N/A   Clear
9:55 AM 71.8 °F 63.5 °F 75% 30.20 in 10.0 mi Calm Calm - N/A   Clear
10:15 AM 72.1 °F 63.5 °F 74% 30.20 in 10.0 mi SE 4.6 mph - N/A   Clear
10:35 AM 73.4 °F 63.7 °F 71% 30.20 in 10.0 mi SE 4.6 mph - N/A   Scattered Clouds
10:55 AM 75.6 °F 64.8 °F 69% 30.20 in 10.0 mi SE 3.5 mph - N/A   Mostly Cloudy
11:15 AM 74.7 °F 65.1 °F 72% 30.20 in 10.0 mi ESE 3.5 mph - N/A   Overcast
11:35 AM 74.3 °F 65.3 °F 73% 30.19 in 10.0 mi Calm Calm - N/A   Overcast
11:55 AM 76.5 °F 64.9 °F 67% 30.18 in 10.0 mi West 3.5 mph - N/A   Overcast
12:15 PM 77.0 °F 64.9 °F 66% 30.17 in 10.0 mi NW 3.5 mph - N/A   Overcast
12:35 PM 76.5 °F 65.1 °F 68% 30.17 in 10.0 mi NW 3.5 mph - N/A   Overcast
12:55 PM 76.3 °F 64.6 °F 67% 30.16 in 10.0 mi WNW 4.6 mph - N/A   Overcast
1:15 PM 77.9 °F 65.8 °F 66% 30.15 in 10.0 mi Calm Calm - N/A   Overcast
1:35 PM 77.4 °F 65.8 °F 67% 30.15 in 10.0 mi NNE 3.5 mph - N/A   Overcast
1:55 PM 78.3 °F 66.7 °F 68% 30.14 in 10.0 mi Calm Calm - N/A   Scattered Clouds
2:15 PM 79.3 °F 65.8 °F 63% 30.13 in 10.0 mi Calm Calm - N/A   Clear
2:35 PM 79.0 °F 65.8 °F 64% 30.13 in 10.0 mi South 4.6 mph - N/A   Mostly Cloudy
2:55 PM 79.7 °F 66.7 °F 64% 30.12 in 10.0 mi SSW 3.5 mph - N/A   Overcast
3:15 PM 78.3 °F 66.4 °F 67% 30.12 in 10.0 mi Calm Calm - N/A   Overcast
3:35 PM 78.3 °F 66.2 °F 66% 30.12 in 10.0 mi Calm Calm - N/A   Overcast
3:55 PM 78.6 °F 66.2 °F 66% 30.12 in 10.0 mi Calm Calm - N/A   Scattered Clouds
4:15 PM 78.4 °F 66.9 °F 68% 30.11 in 10.0 mi South 3.5 mph - N/A   Clear
4:35 PM 79.2 °F 66.6 °F 65% 30.10 in 10.0 mi South 4.6 mph - N/A   Clear
4:55 PM 78.8 °F 66.7 °F 66% 30.10 in 10.0 mi South 3.5 mph - N/A   Scattered Clouds
5:15 PM 78.3 °F 66.9 °F 68% 30.10 in 10.0 mi South 3.5 mph - N/A   Scattered Clouds
5:35 PM 77.9 °F 67.1 °F 69% 30.10 in 10.0 mi Calm Calm - N/A   Clear
5:55 PM 77.0 °F 67.3 °F 72% 30.09 in 10.0 mi Calm Calm - N/A   Clear
6:15 PM 76.1 °F 68.2 °F 76% 30.09 in 10.0 mi Calm Calm - N/A   Clear
6:35 PM 74.3 °F 68.5 °F 82% 30.09 in 10.0 mi West 3.5 mph - N/A   Clear
6:55 PM 73.4 °F 68.2 °F 84% 30.09 in 10.0 mi Calm Calm - N/A   Clear
7:15 PM 72.5 °F 68.0 °F 86% 30.09 in 10.0 mi Calm Calm - N/A   Clear
7:35 PM 71.1 °F 68.0 °F 90% 30.10 in 10.0 mi Calm Calm - N/A   Clear
7:55 PM 70.7 °F 67.5 °F 89% 30.10 in 10.0 mi Calm Calm - N/A   Clear
8:15 PM 69.6 °F 67.3 °F 92% 30.10 in 10.0 mi Calm Calm - N/A   Clear
8:35 PM 69.4 °F 66.7 °F 91% 30.10 in 10.0 mi West 3.5 mph - N/A   Clear
8:55 PM 68.9 °F 66.2 °F 91% 30.10 in 10.0 mi Calm Calm - N/A   Clear
9:15 PM 68.4 °F 65.8 °F 92% 30.10 in 10.0 mi Calm Calm - N/A   Clear
9:35 PM 67.8 °F 65.7 °F 93% 30.10 in 10.0 mi Calm Calm - N/A   Clear
9:55 PM 67.3 °F 65.5 °F 94% 30.10 in 10.0 mi Calm Calm - N/A   Clear
10:15 PM 67.1 °F 65.3 °F 94% 30.10 in 10.0 mi Calm Calm - N/A   Clear
10:35 PM 66.6 °F 64.9 °F 95% 30.11 in 10.0 mi Calm Calm - N/A   Clear
10:55 PM 65.5 °F 64.8 °F 98% 30.11 in 7.0 mi Calm Calm - N/A   Clear
11:15 PM 64.8 °F 64.4 °F 99% 30.11 in 7.0 mi Calm Calm - N/A   Clear
11:35 PM 64.6 °F 64.2 °F 99% 30.11 in 7.0 mi Calm Calm - N/A   Clear
11:55 PM 64.2 °F 63.7 °F 98% 30.11 in 5.0 mi Calm Calm - N/A   Clear